Location: Krakow
(50.0830°N, 19.9170°E)
Time: 07:57:56
(UTC+02:00)

A-11 Canister half - Pass Details

Date: 16 March 2026
Orbit: 1523 x 1684 km, 47.3° (Epoch: 18 April)

Event Time Altitude Azimuth Distance (km) Brightness Sun altitude
Rises 10:42:31 0° 251° (WSW) 4,868 11.6 36.3°
Reaches altitude 10° 10:45:42 10° 249° (WSW) 3,862 11.2 36.5°
Maximum altitude 10:55:27 72° 168° (SSE) 1,659 10.3 37.0°
Drops below altitude 10° 11:04:53 10° 87° (E) 3,740 11.3 37.4°
Sets 11:07:54 0° 85° (E) 4,708 11.6 37.5°
